Regional Weather Roundup
Issued by NWS

Home | Current Version | Previous Version | Graphics & Text | Print | Product List | Glossary Off
Versions: 1 2 3 4 5 6 7 8 9 10 11 12 13 14 15 16 17 18 19 20 21 22 23 24 25 26 27 28 29 30 31 32 33 34 35 36 37 38 39 40 41 42 43 44 45 46 47 48 49 50

000
ASUS43 KOAX 012110
RWRNE

WEATHER ROUNDUP FOR NEBRASKA
NATIONAL WEATHER SERVICE OMAHA NE
400 PM CDT WED OCT 01 2014

NOTES: SATELLITE DATA IS BEING USED TO AUGMENT CLOUD COVER ABOVE
       12000 FEET.
       "FAIR" INDICATES FEW OR NO CLOUDS BELOW 12,000 FEET WITH NO
       SIGNIFICANT WEATHER AND/OR OBSTRUCTIONS TO VISIBILITY.

  * THESE STATIONS DO NOT REPORT WEATHER SUCH AS RAIN...SNOW OR FOG.

NEZ001>004-019>022-054>056-012200-
NEBRASKA PANHANDLE

CITY           SKY/WX    TMP DP  RH WIND       PRES   REMARKS
SCOTTSBLUFF    PTSUNNY   62  46  55 N16G24    29.85R
ALLIANCE       MOSUNNY   65  43  44 VRB5      29.83S
CHADRON        PTSUNNY   60  46  59 NW13      29.86R
KIMBALL        CLOUDY    60  40  48 N9        29.85S
SIDNEY         PTSUNNY   67  42  40 NE6       29.85S
$$

NEZ057>060-069>072-079>082-012200-
SOUTHWEST NEBRASKA

CITY           SKY/WX    TMP DP  RH WIND       PRES   REMARKS
NORTH PLATTE   MOSUNNY   76  45  33 MISG      29.77S
IMPERIAL       MOSUNNY   74  42  31 NE8       29.78F
LEXINGTON      MOSUNNY   74  53  48 CALM      29.75F
MCCOOK         MOSUNNY   78  45  30 VRB3      29.75F
OGALLALA       MOSUNNY   73  45  36 CALM      29.79S
$$

NEZ005>010-023>029-035>040-094-012200-
NORTH CENTRAL NEBRASKA

CITY           SKY/WX    TMP DP  RH WIND       PRES   REMARKS
VALENTINE      CLOUDY    70  46  42 N6        29.81S
AINSWORTH      MOSUNNY   69  46  44 NW6       29.80S
BROKEN BOW     PTSUNNY   78  48  34 VRB7      29.76S
O`NEILL        MOSUNNY   72  52  49 NW10      29.77F
ORD            MOSUNNY   76  48  37 NW6       29.74F
THEDFORD       CLOUDY    71  48  43 N5        29.80S
$$

NEZ041-046>049-061>064-073>077-083>087-012200-
SOUTH CENTRAL NEBRASKA

CITY           SKY/WX    TMP DP  RH WIND       PRES   REMARKS
GRAND ISLAND   MOSUNNY   78  52  40 SE3       29.74S
AURORA         PTSUNNY   76  55  46 N5        29.73S
HASTINGS       MOSUNNY   79  50  36 N7        29.73S
HEBRON         MOSUNNY   76  59  55 E6        29.71S
HOLDREGE       MOSUNNY   77  48  35 CALM      29.73F
KEARNEY *      MOSUNNY   75  54  46 CALM      29.75S
YORK           PTSUNNY   75  59  57 CALM      29.72F
$$

NEZ011>018-030>034-042>045-012200-
NORTHEAST NEBRASKA

CITY           SKY/WX    TMP DP  RH WIND       PRES   REMARKS
NORFOLK        PTSUNNY   76  56  49 NW9       29.73R
ALBION         PTSUNNY   75  51  43 NW7       29.74S
BLAIR          PTSUNNY   76  62  62 CALM      29.72F
COLUMBUS *     PTSUNNY   77  54  44 CALM      29.74S
FREMONT        PTSUNNY   77  61  58 CALM      29.73S
TEKAMAH        PTSUNNY   78  62  57 S5        29.72S
WAYNE          PTSUNNY   78  55  44 W6        29.73R
$$

NEZ050>053-065>068-078-088>093-012200-
SOUTHEAST NEBRASKA

CITY           SKY/WX    TMP DP  RH WIND       PRES   REMARKS
LINCOLN        MOSUNNY   75  64  68 SE8       29.73S
OMAHA EPPLEY   PTSUNNY   74  61  63 CALM      29.72S
BEATRICE       PTSUNNY   78  62  56 CALM      29.71F
FALLS CITY     MOSUNNY   82  64  54 CALM      29.70S
NEBRASKA CITY  PTSUNNY   74  62  65 E5        29.73R
PLATTSMOUTH      N/A     73  61  65 CALM      29.73
$$

NEZ044-045-051>053-067-012200-
OMAHA AREA

CITY           SKY/WX    TMP DP  RH WIND       PRES   REMARKS
OMAHA EPPLEY   PTSUNNY   74  61  63 CALM      29.72S
BLAIR          PTSUNNY   76  62  62 CALM      29.72F
FREMONT        PTSUNNY   77  61  58 CALM      29.73S
MILLARD        PTSUNNY   73  64  72 SE5       29.72S
OFFUTT AFB     PTSUNNY   75  68  78 SE5       29.72S
PLATTSMOUTH      N/A     73  61  65 CALM      29.73
WAHOO          FAIR      77  59  54 CALM      29.72S
$$



USA.gov is the U.S. government's official web portal to all federal, state and local government web resources and services.